Regional Weather Roundup
Issued by NWS

Home | Current Version | Previous Version | Graphics & Text | Print | Product List | Glossary On
Versions: 1 2 3 4 5 6 7 8 9 10 11 12 13 14 15 16 17 18 19 20 21 22 23 24 25 26 27 28 29 30 31 32 33 34 35 36 37 38 39 40 41 42 43 44 45 46 47 48 49 50
000
ASUS43 KDMX 191906
RWRIA

WEATHER ROUNDUP FOR IOWA
NATIONAL WEATHER SERVICE DES MOINES IA
200 PM CDT THU APR 19 2018

NOTE: "FAIR" INDICATES FEW OR NO CLOUDS BELOW 12,000 FEET WITH NO
SIGNIFICANT WEATHER AND/OR OBSTRUCTIONS TO VISIBILITY.

* - THESE STATIONS ARE NOT NWS STATIONS...THUS NOT UNDER NWS
QUALITY CONTROL.  THEY ALSO DO NOT REPORT WEATHER SUCH
AS PRECIPITATION OR FOG.

IAZ001>003-012>014-020>022-031>034-043>046-192000-
   NORTHWEST IOWA

CITY           SKY/WX    TMP DP  RH WIND       PRES   REMARKS
CARROLL *      SUNNY     46  30  53 NE8G14    30.48S
CHEROKEE *     SUNNY     38  25  59 E9        30.51S WCI  32
DENISON *      SUNNY     50  32  50 E12       30.48F
LE MARS *      SUNNY     43  28  56 E7        30.50S
ORANGE CITY *  SUNNY     39  27  60 CALM      30.49F
SHELDON *      SUNNY     37  27  65 SE7       30.48S WCI  32
SIOUX CITY     SUNNY     49  32  52 SE5       30.48F
SPENCER        SUNNY     39  24  55 NE7       30.51R WCI  34
STORM LAKE *     N/A     36  25  64 E8        30.49S WCI  29
$$

IAZ055>058-069>071-079>083-090>094-192000-
   SOUTHWEST IOWA

CITY           SKY/WX    TMP DP  RH WIND       PRES   REMARKS
ATLANTIC *     SUNNY     52  30  43 VRB7G13   30.46S
AUDUBON *      SUNNY     50  30  46 NE9       30.48S
CLARINDA *     SUNNY     55  28  35 NE6G18    30.47F
COUNCIL BLFS * SUNNY     52  32  46 NW3G14    30.46S
CRESTON *      SUNNY     52  28  40 E13       30.47R
HARLAN  *      SUNNY     52  28  40 E6G14     30.49F
LAMONI         SUNNY     52  30  43 VRB6G16   30.46R
RED OAK *      SUNNY     54  30  40 VRB5G14   30.46F
SHENANDOAH *   SUNNY     55  30  38 NE9G16    30.47S
$$

IAZ047>049-059>061-072>074-084-192000-
   CENTRAL IOWA

CITY           SKY/WX    TMP DP  RH WIND       PRES   REMARKS
AMES           SUNNY     48  25  40 N9        30.50S
ANKENY *       SUNNY     50  25  37 NE10      30.50S
BOONE *        SUNNY     46  25  42 N10       30.49R
CHARITON *     SUNNY     50  27  40 MISG      30.46F
DES MOINES     MOSUNNY   51  27  39 VRB7      30.48F
GRINNELL*      SUNNY     49  26  41 N12       30.48S
KNOXVILLE *    SUNNY     48  27  43 VRB6G13   30.46S
MARSHALLTOWN   SUNNY     47  30  51 N10       30.48S
NEWTON *       SUNNY     48  28  46 N8G15     30.48S
PELLA *        SUNNY     51  30  43 N9        30.48S
PERRY *        FAIR      49  25  39 N12       30.48F
$$

IAZ004>006-015-016-023>025-035-036-192000-
   NORTH CENTRAL IOWA

CITY           SKY/WX    TMP DP  RH WIND       PRES   REMARKS
ALGONA *       SUNNY     36  23  60 N5        30.52S WCI  32
CLARION *      SUNNY     36  25  64 NW5       30.52R WCI  32
ESTHERVILLE    SUNNY     37  26  64 NE3       30.50F
FORT DODGE *   SUNNY     39  23  52 NE7       30.52R WCI  34
MASON CITY     SUNNY     40  26  57 N3        30.51S
FOREST CITY *  FAIR      37  27  65 NW7       30.51R WCI  32
WEBSTER CITY * SUNNY     43  25  49 VRB7      30.49S
IOWA FALLS *   FAIR      43  25  49 N6        30.51S
$$

IAZ007>011-017>019-026>030-037>042-050>054-066-192000-
   NORTHEAST IOWA

CITY           SKY/WX    TMP DP  RH WIND       PRES   REMARKS
CEDAR RAPIDS   FAIR      52  24  33 N10       30.45S
CHARLES CITY * FAIR      39  23  52 NW6       30.50R WCI  35
CLINTON *      FAIR      50  28  42 N12G17    30.44
DECORAH *      FAIR      41  23  48 VRB7      30.46S
DUBUQUE        FAIR      46  25  43 NW9       30.44R
MONTICELLO *   FAIR      48  25  40 W10G17    30.45S
OELWEIN *      FAIR      39  30  70 N9        30.49R WCI  33
WATERLOO       FAIR      44  29  55 N8        30.49S
$$

IAZ064-065-067-068-078-192000-
   EAST CENTRAL IOWA

CITY           SKY/WX    TMP DP  RH WIND       PRES   REMARKS
DAVENPORT      FAIR      51  29  42 N6G18     30.46R
IOWA CITY      FAIR      52  22  30 N10       30.47S
MT. PLEASANT * SUNNY     52  27  37 CALM      30.45S
MUSCATINE *    FAIR      54  23  30 N14       30.45S
QUAD CITIES    FAIR      53  29  39 NW9       30.43R
$$

IAZ062-063-075>077-085>089-095>099-192000-
   SOUTHEAST IOWA

CITY           SKY/WX    TMP DP  RH WIND       PRES   REMARKS
BURLINGTON     SUNNY     54  26  34 N10       30.43S
FAIRFIELD *    SUNNY     52  27  37 NW9G15    30.45S
FORT MADISON * SUNNY     54  30  40 NW7       30.44S
KEOKUK *       SUNNY     54  30  40 NE12      30.43S
OSKALOOSA *    FAIR      51  28  41 N9        30.47S
CENTERVILLE *    N/A     52  28  40 N8        30.47S
OTTUMWA        SUNNY     53  28  38 N9        30.46S
WASHINGTON *   SUNNY     52  27  37 N12       30.46S
$$

ABBREVIATIONS USED IN REMARKS
   TC - TEMPERATURES IN CELSIUS
  WCI - WIND CHILL INDEX
   HX - HEAT INDEX
  VSB - VISIBILITY
$$




USA.gov is the U.S. government's official web portal to all federal, state and local government web resources and services.